QPF
0.00 0.00 0.00 0.00 0.00 0.00 0.00 0.00 0.00 0.02 0.03 0.03 0.02 0.04 0.04 0.04 0.03 0.04 0.02 0.01 0.00 0.00
0.00 0.00 0.00 0.00 0.00 0.00 0.00 0.00 0.03 0.05 0.03 0.02 0.01 0.04 0.03 0.03 0.03 0.05 0.05 0.03 0.01 0.01
0.00 0.00 0.00 0.00 0.00 0.00 0.01 0.02 0.02 0.01 0.00 0.01 0.01 0.00 0.00 0.00 0.00 0.01 0.03 0.04 0.04 0.03
0.00 0.00 0.00 0.00 0.01 0.01 0.00 0.00 0.00 0.00 0.00 0.00 0.00 0.00 0.00 0.00 0.00 0.00 0.02 0.03 0.03 0.02
0.00 0.00 0.00 0.00 0.00 0.00 0.00 0.00 0.00 0.00 0.00 0.00 0.00 0.00 0.00 0.00 0.00 0.00 0.00 0.01 0.02 0.02
0.00 0.00 0.00 0.00 0.00 0.00 0.00 0.00 0.00 0.00 0.00 0.00 0.00 0.00 0.00 0.00 0.00 0.00 0.00 0.00 0.01 0.02
0.00 0.00 0.00 0.00 0.00 0.00 0.00 0.00 0.00 0.00 0.00 0.00 0.00 0.00 0.00 0.00 0.00 0.00 0.00 0.00 0.00 0.01
0.00 0.00 0.00 0.00 0.00 0.00 0.00 0.00 0.00 0.00 0.00 0.00 0.00 0.00 0.00 0.00 0.00 0.00 0.00 0.00 0.00 0.00
0.00 0.00 0.00 0.00 0.00 0.00 0.00 0.00 0.00 0.00 0.00 0.00 0.00 0.00 0.00 0.00 0.00 0.00 0.00 0.00 0.00 0.00
0.00 0.00 0.00 0.00 0.00 0.00 0.00 0.00 0.00 0.00 0.00 0.00 0.00 0.00 0.00 0.00 0.00 0.00 0.00 0.00 0.00 0.00
0.00 0.00 0.00 0.00 0.00 0.00 0.00 0.00 0.00 0.00 0.00 0.00 0.00 0.00 0.00 0.00 0.00 0.00 0.00 0.00 0.00 0.00
0.00 0.00 0.00 0.00 0.00 0.00 0.00 0.00 0.00 0.00 0.00 0.00 0.00 0.00 0.00 0.00 0.00 0.00 0.00 0.00 0.00 0.00
0.00 0.00 0.00 0.00 0.00 0.00 0.00 0.00 0.00 0.00 0.00 0.00 0.00 0.00 0.00 0.00 0.00 0.00 0.00 0.00 0.00 0.00
0.00 0.00 0.00 0.00 0.00 0.00 0.00 0.00 0.00 0.00 0.00 0.00 0.00 0.00 0.00 0.00 0.00 0.00 0.00 0.00 0.00 0.00
MSLP
1017.29 1016.73 1016.06 1015.36 1014.82 1014.58 1014.36 1013.64 1012.88 1012.23 1011.68 1011.42 1010.99 1010.45 1010.28 1009.55 1008.90 1008.27 1008.05 1008.31 1008.09 1007.97
1017.26 1016.66 1016.05 1015.31 1014.71 1014.20 1013.81 1013.22 1012.55 1012.24 1011.70 1011.14 1010.39 1010.57 1010.65 1009.46 1008.77 1008.22 1007.92 1007.58 1007.48 1007.48
1017.15 1016.56 1015.92 1015.11 1014.49 1013.86 1013.49 1012.88 1012.40 1012.14 1011.94 1011.31 1010.87 1010.51 1010.16 1009.78 1008.99 1008.51 1007.97 1007.46 1007.62 1006.79
1017.04 1016.36 1015.69 1015.00 1014.34 1013.93 1013.44 1012.96 1012.63 1012.30 1012.02 1011.61 1011.17 1010.77 1010.53 1009.88 1009.44 1009.03 1008.37 1007.88 1007.08 1006.84
1017.09 1016.44 1015.75 1014.91 1014.62 1013.91 1013.55 1013.09 1012.76 1012.32 1011.87 1011.59 1011.19 1010.71 1010.29 1009.83 1009.53 1009.05 1008.28 1007.71 1007.14 1006.52
1017.08 1016.55 1015.80 1015.23 1014.57 1014.03 1013.47 1013.17 1012.83 1012.42 1012.21 1011.75 1011.13 1010.68 1010.41 1010.22 1009.92 1009.27 1008.44 1008.01 1007.64 1007.13
1016.92 1016.54 1015.92 1015.23 1014.56 1013.95 1013.63 1013.35 1013.05 1012.54 1012.27 1011.94 1011.47 1011.26 1011.08 1010.74 1010.35 1009.62 1008.63 1008.17 1007.92 1007.56
1016.71 1016.40 1016.02 1015.30 1014.71 1014.10 1013.81 1013.55 1013.14 1012.64 1012.23 1012.00 1011.70 1011.27 1011.19 1010.82 1010.39 1009.73 1009.15 1008.75 1008.44 1008.10
1016.31 1016.21 1015.97 1015.52 1014.79 1014.23 1013.82 1013.40 1013.00 1012.57 1012.12 1011.83 1011.61 1011.37 1011.00 1010.62 1010.24 1009.86 1009.69 1009.24 1008.72 1008.27
1015.91 1015.96 1015.59 1015.15 1014.49 1014.18 1013.85 1013.36 1013.04 1012.67 1012.18 1011.88 1011.51 1011.07 1010.58 1010.17 1009.87 1009.79 1009.63 1009.29 1008.94 1008.45
1015.71 1015.64 1015.28 1014.85 1014.51 1014.28 1013.74 1013.24 1012.87 1012.54 1012.10 1011.70 1011.23 1010.87 1010.47 1010.01 1009.63 1009.53 1009.38 1009.13 1008.75 1008.75
1015.40 1015.24 1015.13 1014.66 1014.34 1013.99 1013.54 1013.12 1012.71 1012.26 1011.89 1011.48 1011.15 1010.71 1010.35 1009.86 1009.52 1009.33 1009.24 1009.15 1008.96 1008.46
1014.84 1014.68 1014.58 1014.34 1013.97 1013.67 1013.49 1013.10 1012.53 1012.04 1011.70 1011.22 1010.84 1010.55 1010.18 1009.72 1009.46 1009.21 1008.78 1008.49 1008.32 1008.37
1014.21 1014.16 1013.93 1013.75 1013.59 1013.42 1013.18 1012.87 1012.40 1011.88 1011.66 1011.30 1010.80 1010.45 1009.89 1009.53 1009.26 1008.96 1008.62 1008.38 1007.96 1007.68
Thickness
5508 5505 5501 5497 5492 5485 5477 5476 5473 5470 5463 5462 5467 5474 5478 5486 5500 5517 5527 5532 5539 5546
5484 5478 5472 5467 5459 5452 5443 5440 5437 5432 5430 5432 5438 5443 5450 5458 5470 5484 5499 5513 5525 5528
5464 5457 5451 5446 5437 5431 5427 5428 5426 5423 5420 5420 5420 5420 5428 5437 5446 5459 5474 5489 5496 5508
5445 5436 5431 5428 5426 5425 5425 5422 5419 5416 5412 5407 5406 5407 5410 5419 5426 5437 5452 5466 5479 5487
5427 5418 5416 5418 5418 5419 5417 5415 5412 5409 5407 5402 5398 5397 5403 5408 5415 5423 5435 5450 5462 5473
5411 5406 5407 5409 5412 5413 5413 5411 5406 5403 5399 5398 5398 5396 5396 5397 5402 5413 5424 5432 5443 5458
5402 5402 5403 5405 5408 5410 5408 5406 5403 5401 5398 5396 5395 5391 5388 5389 5392 5400 5412 5421 5428 5442
5398 5398 5398 5401 5402 5403 5402 5401 5400 5401 5400 5396 5394 5394 5390 5391 5392 5397 5402 5408 5413 5422
5395 5393 5392 5393 5396 5397 5397 5397 5397 5397 5398 5396 5395 5394 5395 5395 5396 5398 5399 5401 5405 5412
5391 5388 5387 5388 5392 5391 5391 5392 5391 5391 5392 5392 5393 5395 5398 5400 5401 5400 5400 5404 5405 5407
5384 5383 5383 5384 5384 5384 5385 5387 5387 5387 5388 5389 5391 5392 5395 5398 5400 5400 5400 5402 5406 5406
5377 5377 5376 5377 5378 5379 5379 5379 5381 5383 5384 5384 5385 5387 5389 5392 5394 5396 5395 5395 5396 5401
5370 5369 5368 5369 5370 5370 5370 5371 5374 5377 5377 5380 5380 5381 5383 5386 5388 5388 5390 5390 5392 5391
5363 5361 5360 5360 5361 5361 5361 5362 5365 5368 5368 5370 5373 5374 5378 5380 5381 5382 5383 5382 5383 5383